Theta_e
317 318 318 318 319 319 319 318 318 320 319 319 319 319 319 319 319 320 317 314 315 317 317 318 318 318 319 317 314 312 312 312 313 312 311 311 309 309 308 308 307 306 306 308 308 308 309 309 311 313 313 315 317 317 318 319 319 319 319 320 320 320 320 320 320 320 321 320 321 320 320 320 318 318 317 316 316 316 316 316 315 316 316 316 316 317
316 318 319 319 319 319 319 319 318 318 317 318 318 318 319 318 319 320 317 314 314 316 317 319 319 318 319 318 314 312 312 313 313 312 312 311 310 309 308 307 306 306 307 308 308 308 308 309 312 313 313 314 315 316 316 317 319 319 319 319 319 318 318 318 318 318 318 318 318 317 317 317 315 315 314 314 313 313 312 312 312 312 311 311 311 310
317 318 319 319 320 318 317 318 318 317 317 318 317 318 319 319 320 319 316 314 314 315 317 318 318 318 318 317 314 313 313 313 312 312 311 310 309 308 308 307 306 306 306 307 307 308 309 309 311 313 313 314 315 315 316 317 318 318 317 317 316 315 315 316 317 316 316 316 316 315 314 313 312 312 311 310 309 308 307 307 306 306 305 305 305 305
319 319 319 319 319 317 316 316 316 317 317 318 318 318 319 320 321 320 317 315 314 314 316 317 317 318 318 315 313 313 313 312 310 308 309 308 308 308 307 306 306 306 305 305 306 307 308 309 311 312 313 314 314 315 316 317 317 316 316 316 315 314 314 314 315 314 313 312 313 312 311 310 308 307 307 306 305 305 305 304 304 304 304 304 304 304
321 319 318 319 317 317 317 316 316 317 317 318 318 318 320 320 320 321 318 315 315 315 315 316 318 319 319 317 314 312 310 310 308 307 307 306 307 306 305 305 305 305 305 304 306 307 308 309 310 312 314 315 315 315 315 315 315 315 315 315 315 314 313 312 311 310 309 309 309 308 307 307 306 305 305 305 304 304 304 304 303 303 303 302 302 302
320 318 317 318 317 317 318 317 317 318 318 319 319 319 319 320 320 321 319 317 318 319 316 316 321 321 320 321 318 311 308 309 308 307 308 307 306 305 305 305 304 304 304 304 305 306 307 308 309 311 313 314 315 315 314 314 314 314 314 313 312 310 309 308 308 307 307 306 306 306 306 305 305 305 304 304 304 303 303 302 302 301 301 300 300 299
318 316 317 318 318 318 318 318 318 318 318 320 320 319 319 319 320 321 320 319 320 321 317 315 320 322 319 320 318 312 310 310 308 308 308 307 306 305 305 305 304 304 305 304 305 306 307 308 309 309 311 312 312 312 312 312 311 310 309 308 308 307 307 306 306 305 305 305 305 305 305 305 304 304 304 303 303 302 301 300 300 299 298 298 298 297
317 316 317 319 319 319 319 319 320 318 319 322 319 318 319 319 320 320 320 319 319 320 317 315 318 320 319 318 317 313 313 312 309 308 309 308 307 306 305 305 304 304 305 305 305 306 306 307 307 308 308 308 308 308 308 308 307 307 306 306 305 305 305 305 304 304 304 304 304 304 304 304 303 303 302 302 301 300 300 299 298 297 297 296 296 296
318 317 318 319 319 320 320 320 320 319 320 320 316 317 318 318 319 319 319 319 318 319 319 317 317 318 319 318 316 314 314 314 312 309 309 309 307 306 305 305 304 303 304 305 305 305 305 306 306 306 306 306 306 306 306 305 305 305 304 304 304 304 303 303 303 303 303 303 303 303 303 303 302 302 301 300 300 299 298 297 297 296 295 295 295 295
317 315 316 318 319 320 318 317 318 319 319 317 315 316 317 317 318 318 318 318 318 319 320 319 318 318 319 318 316 315 315 317 316 312 310 310 308 306 305 304 303 303 304 304 304 305 305 305 305 305 305 305 305 305 304 304 304 304 303 303 303 303 302 302 302 302 302 302 302 301 301 301 301 301 300 299 298 297 296 296 295 295 294 294 294 294
314 311 313 316 318 318 315 312 313 316 316 316 316 317 317 317 316 317 317 317 318 320 320 319 318 319 319 318 318 318 317 317 317 313 311 311 308 306 306 304 303 303 304 304 304 304 305 305 305 305 305 305 304 304 304 303 303 303 303 302 302 302 302 302 302 301 301 301 301 300 300 300 300 300 299 298 297 295 295 295 294 294 294 294 294 294
314 313 314 315 314 315 314 313 311 312 314 316 318 318 318 318 317 317 318 317 320 322 319 317 318 319 319 318 317 318 316 316 316 313 312 310 308 306 305 304 303 303 304 304 304 304 305 305 305 304 304 304 304 303 303 303 302 302 302 302 302 302 301 301 301 300 300 300 300 299 299 299 299 298 297 297 295 294 294 294 294 294 294 294 293 293
317 316 316 314 312 313 316 316 313 311 313 316 318 318 320 322 320 321 322 319 321 321 315 313 317 319 319 317 317 317 315 314 314 313 312 310 308 307 305 304 303 303 303 303 304 304 304 304 304 304 304 303 303 303 303 302 302 302 302 301 301 301 301 300 300 300 299 299 299 299 298 298 298 297 296 295 295 294 294 294 294 294 293 293 293 293
320 318 316 315 313 313 316 318 316 314 313 315 318 319 321 324 323 323 324 322 322 318 312 311 315 317 317 317 317 315 312 311 311 311 312 310 308 307 305 303 303 303 303 303 304 304 304 304 304 303 303 303 303 302 302 302 302 301 301 301 301 301 300 300 299 299 299 299 298 298 297 297 296 295 295 295 294 294 294 294 294 293 293 293 293 293
322 322 318 317 316 314 315 318 319 317 314 315 318 319 321 323 324 324 323 323 322 316 310 311 314 317 317 315 313 310 308 307 307 308 309 309 307 306 304 303 303 303 303 303 303 304 304 304 303 303 303 303 302 302 302 302 301 301 301 300 300 300 300 299 299 298 298 297 297 297 296 296 295 295 295 294 294 294 294 294 294 293 293 293 293 293
323 324 319 316 315 314 315 317 318 317 316 315 317 319 320 321 321 320 318 318 318 316 313 312 314 316 315 311 307 307 306 306 306 306 308 308 307 306 304 303 303 303 303 303 303 304 304 303 303 303 303 302 302 302 301 301 301 300 300 300 299 299 299 299 298 297 297 296 296 296 295 295 295 294 294 294 294 294 294 294 294 293 293 293 293 292
323 322 316 313 314 313 314 316 316 318 318 316 316 318 317 317 317 316 315 314 314 318 317 314 314 315 314 312 308 307 307 306 306 306 307 308 307 305 304 303 303 303 303 303 303 303 303 303 303 303 302 302 302 301 301 301 300 300 300 299 299 298 298 298 297 296 296 296 295 295 294 294 294 294 294 294 294 294 294 293 293 293 292 292 291 291
323 321 314 313 315 312 309 312 314 315 316 316 317 318 315 315 315 315 317 317 316 319 319 316 316 316 316 316 311 308 309 308 306 306 306 307 306 306 305 303 303 303 302 302 303 303 303 303 303 302 302 302 301 301 301 300 300 299 299 299 298 298 297 297 296 295 295 295 295 294 294 293 293 293 293 294 293 293 293 292 292 291 291 291 290 290
321 322 315 312 314 311 308 311 314 313 313 313 315 316 316 318 318 317 318 319 319 320 320 318 317 317 317 317 313 311 312 310 308 306 306 306 306 306 306 304 303 303 302 302 303 303 303 302 302 302 302 301 301 301 300 300 299 299 298 298 297 297 297 296 296 295 294 294 294 293 293 293 293 293 293 293 293 292 292 292 291 291 291 290 290 289
319 322 318 311 311 311 309 312 316 314 312 311 312 314 315 316 318 318 318 318 319 320 321 320 317 317 318 317 314 314 314 312 309 306 306 307 307 306 306 305 304 303 302 303 303 303 303 302 302 302 302 301 301 301 300 299 299 298 298 297 296 296 296 295 295 294 294 293 293 293 293 293 293 293 292 292 292 292 292 292 291 291 291 290 289 288
317 319 320 312 309 312 312 313 316 316 314 312 312 314 315 314 314 316 317 316 317 319 321 321 320 318 317 316 315 315 314 313 310 308 308 308 308 307 307 306 304 303 303 303 304 303 303 302 302 302 301 301 301 300 300 299 298 298 297 296 296 295 295 295 294 293 293 293 292 292 293 292 292 292 292 292 292 292 292 291 291 290 290 289 288 288
317 317 319 314 311 313 315 313 313 314 314 314 313 314 316 315 315 316 318 317 315 317 318 319 320 319 314 313 314 314 314 314 312 310 309 309 309 308 307 306 305 304 304 304 304 303 303 302 302 302 301 301 300 300 299 298 298 297 296 296 295 295 294 294 294 293 293 292 292 292 292 292 292 292 292 291 292 292 291 291 290 289 289 288 288 288
316 316 317 317 314 314 313 310 309 309 311 313 314 314 316 315 315 318 319 317 314 314 315 315 317 318 312 310 310 311 312 313 312 312 311 310 310 308 307 307 305 305 305 304 303 303 302 302 302 302 301 301 300 300 299 298 297 297 296 295 295 295 294 294 293 293 292 292 292 292 292 291 291 291 291 291 291 291 291 290 290 289 289 288 288 288
315 316 317 317 315 313 311 309 309 308 309 312 313 314 315 316 316 317 317 316 316 315 315 315 318 317 311 308 308 308 308 308 309 311 312 311 310 309 308 307 306 305 304 304 303 302 302 302 302 302 301 301 300 300 299 298 297 296 296 295 295 294 294 293 293 292 292 292 292 292 291 291 291 291 291 291 291 291 290 290 289 289 289 288 288 288
316 317 317 318 318 316 314 313 312 310 309 312 313 314 315 316 317 315 314 314 316 318 318 317 319 317 310 307 307 307 306 306 307 308 310 311 310 308 308 307 306 305 304 303 303 302 302 302 302 302 301 301 300 299 299 298 297 296 295 295 295 294 294 293 292 292 291 291 291 291 291 291 291 291 291 291 291 291 290 290 289 289 289 288 288 288
316 317 317 318 320 321 320 318 316 314 311 311 313 314 315 316 316 315 314 315 317 319 319 318 318 315 310 308 308 307 306 307 307 306 307 308 308 308 307 306 306 305 304 303 303 302 302 302 302 302 302 301 300 300 299 297 296 295 295 294 295 294 293 293 292 291 291 291 291 291 291 291 291 291 291 291 291 290 290 290 290 289 289 289 288 288
315 317 317 318 320 320 317 315 314 314 313 312 313 313 313 315 315 314 315 316 316 317 317 317 317 315 311 309 309 309 308 308 309 308 306 306 307 306 306 306 305 304 304 303 303 302 302 302 303 303 302 301 300 300 299 297 296 295 294 294 294 294 293 293 292 291 291 291 291 291 291 291 291 290 290 290 290 290 290 290 290 289 289 289 289 288
314 316 317 318 319 316 313 310 311 313 314 314 313 313 312 314 315 315 315 316 317 316 316 316 316 316 313 310 310 310 308 308 310 310 307 306 306 305 305 305 304 304 303 303 303 303 303 303 304 303 303 302 300 299 298 297 295 294 294 295 294 294 294 293 292 291 291 291 291 291 290 291 290 290 290 290 290 290 290 289 289 289 289 289 289 288
313 315 316 317 317 315 312 311 311 312 313 313 313 313 312 312 313 314 314 315 316 316 316 316 315 316 314 311 311 311 309 309 310 310 308 307 306 305 305 304 304 303 303 304 304 304 305 305 305 304 303 302 300 299 298 296 295 294 294 295 295 295 294 293 291 291 291 291 291 290 290 290 290 290 290 290 290 290 290 289 289 289 289 289 288 288
312 314 314 314 315 314 312 311 312 312 312 312 312 313 313 312 312 312 313 314 315 315 315 315 315 315 314 312 312 311 310 310 309 308 307 307 306 305 304 305 305 305 305 306 306 307 307 306 306 304 303 301 300 299 298 297 296 295 294 295 295 295 294 292 291 291 291 291 291 290 290 290 290 290 290 290 290 290 290 289 289 289 289 289 288 288
311 313 312 311 314 315 311 309 310 311 312 312 313 312 312 312 311 311 312 313 314 314 314 313 314 314 312 312 311 310 309 309 308 307 307 307 306 305 305 306 306 306 306 307 307 307 306 306 305 304 302 301 301 300 298 298 296 295 294 295 295 295 294 293 292 291 291 290 290 290 290 290 290 290 290 290 290 290 289 289 289 289 289 288 288 288
309 311 310 311 315 315 309 307 309 309 309 311 312 312 312 312 311 311 311 312 312 313 313 312 314 313 312 311 310 308 308 307 307 308 307 307 306 306 306 306 306 306 306 306 306 306 306 305 304 304 303 303 301 300 299 298 297 295 295 295 296 295 294 292 291 291 291 290 290 290 290 290 290 290 290 290 290 290 289 289 289 289 289 288 288 288
308 310 310 312 316 313 306 306 308 308 310 312 312 312 311 311 311 311 311 311 311 312 312 313 314 313 311 310 309 308 307 308 308 308 308 307 307 307 307 307 307 307 306 306 306 306 305 305 304 304 303 303 302 301 301 300 298 297 296 296 296 295 293 292 291 290 290 290 291 290 290 290 290 290 290 290 290 290 289 289 289 289 288 288 288 288
308 310 310 312 313 309 304 306 309 311 313 313 312 312 311 310 310 310 310 310 310 311 312 313 313 312 311 310 309 308 308 308 308 308 308 308 307 307 307 306 306 306 305 305 304 303 303 302 302 301 301 301 301 301 300 300 299 298 297 296 296 294 292 291 291 290 290 290 290 290 290 290 290 290 290 290 290 290 290 289 289 288 288 288 288 288
308 309 310 310 310 306 305 308 311 313 312 309 307 308 309 309 310 310 310 310 311 311 311 311 311 310 309 308 308 308 308 307 307 307 307 307 306 306 306 305 305 305 304 303 302 301 300 299 298 298 299 300 300 300 299 299 298 297 296 295 295 293 292 291 290 290 290 290 290 290 290 290 291 291 290 290 290 290 290 289 289 288 288 288 288 288
308 309 309 309 308 306 306 309 312 312 310 307 304 302 304 307 308 310 311 310 310 310 309 309 309 309 308 308 307 306 306 305 305 305 305 305 305 305 304 304 304 304 303 301 300 299 298 297 297 298 299 300 300 299 299 299 298 296 295 295 294 293 292 291 290 290 291 290 291 290 290 290 291 291 290 290 290 290 290 289 289 288 288 288 287 287
307 309 309 309 308 307 307 309 310 310 309 309 305 302 303 306 307 309 310 309 308 309 308 308 309 308 308 307 305 303 303 302 303 303 304 304 304 304 304 304 303 302 301 299 298 297 297 296 297 298 299 299 299 298 298 298 298 297 296 295 294 293 292 291 290 291 291 291 291 290 289 290 290 291 290 290 290 290 290 289 288 288 288 288 287 287
304 307 308 310 309 308 308 309 309 309 310 310 307 304 304 305 305 306 308 308 308 308 307 308 308 308 307 305 301 300 301 302 303 303 304 304 303 303 302 301 301 300 299 298 297 296 296 296 297 297 298 298 297 297 297 297 297 297 297 296 295 294 293 292 292 292 291 291 290 290 289 290 290 290 290 290 290 290 289 289 288 288 288 288 287 287
302 303 305 308 310 309 309 309 310 310 310 309 306 302 302 303 304 304 305 306 307 306 305 306 307 306 305 303 299 300 302 303 304 304 303 302 301 300 299 298 297 297 297 297 296 296 296 296 296 296 296 296 296 296 296 296 296 296 296 296 296 295 295 295 295 294 293 291 291 290 289 289 290 290 290 289 290 290 289 288 288 288 288 288 287 287
302 303 305 307 310 310 309 310 309 309 310 307 302 299 300 302 303 305 306 306 304 303 303 304 305 304 304 303 300 300 303 304 303 302 301 300 299 298 297 296 295 296 296 296 296 296 296 296 296 295 295 295 295 296 295 296 295 296 296 296 296 296 296 296 296 296 294 292 291 290 289 289 289 290 289 289 290 290 289 288 288 288 288 288 287 287
303 304 305 307 308 309 310 310 309 309 309 305 300 298 299 301 303 306 306 303 300 299 301 303 303 303 304 302 301 301 302 302 301 300 299 298 297 296 295 295 295 295 295 296 295 295 295 295 295 295 295 295 295 295 295 295 295 295 295 296 296 296 296 296 297 296 295 293 292 291 290 289 289 289 289 289 290 289 288 288 288 288 288 287 287 287
304 304 305 306 307 308 309 309 309 310 308 302 298 297 299 302 304 304 302 300 298 299 300 301 302 303 302 301 301 301 301 300 300 299 298 298 296 295 294 294 294 294 295 295 295 295 295 295 295 295 295 294 294 294 294 294 294 294 294 294 294 294 294 295 296 296 295 293 292 291 290 289 288 288 289 290 289 289 288 288 288 288 288 287 287 286
305 305 304 305 307 307 308 308 310 310 304 298 298 299 299 301 303 300 297 297 299 299 300 301 300 300 300 300 299 299 299 298 298 298 298 297 296 295 294 294 294 294 294 294 294 294 294 294 294 294 293 293 293 292 292 292 293 293 293 293 293 293 294 294 294 294 293 292 291 290 289 288 288 288 289 290 289 288 288 288 288 288 287 287 287 286
304 305 304 305 306 307 307 308 307 305 300 298 300 302 300 300 300 298 297 297 297 298 299 300 299 298 298 298 297 297 297 297 297 297 296 296 295 295 294 293 293 293 293 293 293 293 293 293 292 292 292 291 291 291 291 292 292 292 293 292 292 293 293 293 293 292 292 291 291 290 289 288 288 289 290 289 289 288 288 288 288 287 287 287 286 286
303 303 302 303 305 306 305 304 301 299 298 299 300 300 300 300 299 298 299 298 297 297 297 297 298 297 296 296 296 296 296 296 296 296 296 295 294 294 294 293 293 293 293 293 293 292 292 292 292 292 291 291 291 291 291 292 292 292 292 292 292 292 292 292 292 292 291 291 291 290 289 289 289 290 290 289 288 288 288 288 288 287 287 287 286 286
299 297 298 300 302 303 302 299 297 297 298 299 298 298 299 299 298 298 298 297 297 297 296 296 296 296 295 295 296 296 295 296 295 295 295 294 294 293 293 293 293 293 293 293 292 292 292 292 292 292 292 291 291 291 291 291 292 292 292 292 292 292 292 292 291 291 291 291 291 291 290 290 290 290 290 289 288 288 288 287 287 287 287 287 286 286
296 295 297 298 301 303 301 297 296 296 297 297 298 298 298 298 298 298 298 297 296 296 296 295 295 295 295 295 295 295 295 295 295 295 295 294 294 293 293 293 293 293 293 293 293 292 292 292 292 292 292 292 292 291 291 291 291 291 291 292 292 292 291 291 291 290 290 290 290 290 290 290 290 290 289 288 288 288 288 288 287 287 287 286 286 285
297 295 296 298 299 300 298 295 293 294 295 296 297 297 297 298 298 298 298 297 297 296 296 296 295 295 295 295 295 295 294 294 294 294 294 294 293 293 293 293 293 292 293 293 293 292 292 292 292 292 292 292 292 292 291 291 291 291 291 292 291 291 291 291 290 290 290 290 290 290 290 290 290 290 289 288 288 288 287 287 287 287 287 286 286 285
298 296 296 297 297 297 295 293 293 294 295 295 296 297 298 298 298 297 297 297 297 296 296 296 296 295 295 295 295 294 294 294 294 294 294 294 293 293 293 292 292 292 292 292 292 292 292 292 292 292 292 292 292 291 292 292 291 291 291 291 291 291 291 290 290 290 290 290 290 290 290 290 290 290 289 288 288 287 287 287 287 287 286 286 285 285
297 297 297 296 297 298 297 295 294 295 296 296 296 298 299 298 298 297 297 296 296 296 295 295 295 295 295 295 294 294 294 294 294 293 293 293 293 293 293 292 292 292 292 292 292 292 292 292 292 292 292 291 291 291 291 291 291 291 291 291 291 291 291 290 290 290 290 290 290 290 290 290 290 289 289 288 288 287 287 287 287 287 286 285 285 284
297 298 298 297 297 298 297 295 295 296 297 297 296 297 297 297 297 297 296 296 295 295 295 295 295 294 294 294 294 294 293 293 293 293 293 293 293 293 293 293 293 292 292 292 292 292 292 292 292 291 291 291 291 291 291 291 291 291 291 291 291 291 291 291 290 290 290 290 290 290 290 290 289 289 289 288 288 287 287 287 287 286 286 285 284 284
Wind_Speed
8 7 6 8 10 10 12 14 14 11 7 7 7 7 9 8 8 5 3 6 2 4 8 10 11 13 12 7 11 11 9 9 9 9 9 8 7 7 6 6 6 6 9 9 8 6 5 5 5 7 10 12 12 12 12 12 12 11 12 12 10 9 9 8 8 8 8 9 9 9 9 8 8 7 6 5 5 4 3 3 3 3 3 3 3 3
5 8 10 12 12 9 8 12 14 9 6 8 8 8 8 8 10 7 3 5 3 3 8 11 11 13 14 8 11 12 10 10 11 11 10 9 8 7 7 7 6 7 9 8 7 7 6 6 7 8 10 11 12 12 12 13 13 13 13 12 10 9 8 8 8 7 7 7 8 7 7 6 7 7 5 5 6 6 6 6 6 6 6 6 5 5
6 10 13 14 9 3 2 5 9 9 8 9 7 7 8 7 8 5 4 5 3 3 6 9 9 11 11 6 11 11 10 9 9 8 7 8 8 7 7 7 7 7 7 7 7 7 8 8 9 9 10 12 13 14 14 14 14 13 12 11 9 9 9 9 8 7 6 7 7 6 7 7 9 10 10 11 12 12 11 11 11 12 12 12 12 12
7 8 12 12 6 5 5 5 6 7 7 8 7 7 7 6 7 5 3 4 4 4 4 5 6 10 8 6 8 8 9 7 6 5 5 6 7 7 8 8 7 7 7 7 8 8 9 10 10 10 11 13 14 15 15 15 14 13 12 11 11 10 10 9 8 8 8 9 10 10 12 13 14 15 15 15 15 14 14 15 15 15 15 15 15 14
10 3 4 9 7 8 9 7 8 7 7 9 10 9 8 8 9 7 2 3 4 6 5 5 6 9 10 11 8 6 7 6 7 7 7 8 8 8 10 11 9 8 8 8 9 11 11 12 12 11 13 15 16 16 16 16 15 14 13 12 12 11 11 12 12 12 13 14 15 15 15 15 16 16 16 15 15 15 15 15 15 16 15 15 14 14
12 1 5 8 7 9 10 8 9 8 7 9 10 12 12 12 11 10 4 1 5 6 6 6 6 5 7 12 10 7 6 7 8 9 9 10 10 10 10 11 12 13 12 11 11 13 14 14 14 14 15 16 17 17 17 17 16 15 14 13 13 14 15 16 16 17 16 16 15 15 15 15 15 15 15 14 14 14 14 14 14 14 14 13 13 13
4 4 5 8 7 8 9 8 9 9 8 7 4 6 11 12 12 11 7 3 5 4 3 4 7 4 2 7 8 7 7 9 8 9 11 11 11 11 11 10 12 14 16 16 15 16 16 16 17 17 18 18 18 18 18 17 17 17 17 16 17 17 17 17 17 16 15 14 14 13 13 13 13 13 14 14 13 13 13 13 12 12 12 12 11 11
5 7 5 7 8 8 9 9 9 10 8 5 2 0 5 8 10 10 7 6 5 4 1 5 6 6 5 4 7 8 8 9 9 10 11 13 13 13 12 11 12 14 16 18 18 19 19 20 20 20 20 20 20 20 20 20 20 20 19 19 18 18 17 16 15 14 13 12 12 11 10 11 11 11 13 13 12 12 12 11 11 11 11 11 10 10
5 9 9 10 10 8 8 6 7 12 8 2 4 3 1 2 5 6 6 6 5 4 4 7 6 5 7 4 6 6 7 8 11 12 13 15 16 15 14 13 13 15 18 20 21 22 23 23 23 22 22 22 22 22 22 22 21 21 19 18 17 17 16 15 14 12 11 11 10 9 8 9 10 11 11 12 11 11 11 10 10 10 9 9 9 9
2 3 5 9 10 8 5 2 2 8 6 3 6 5 4 2 1 3 5 5 4 5 7 8 9 6 7 5 6 5 5 9 10 11 13 16 17 16 15 15 15 18 21 22 23 24 25 25 25 25 24 24 24 23 23 22 21 20 18 17 16 16 15 15 14 12 11 10 9 8 8 8 9 10 11 11 11 11 9 9 9 8 8 8 8 9
3 2 1 4 5 2 5 7 6 1 3 8 7 5 4 2 2 3 4 3 5 8 9 11 13 9 7 5 7 5 3 6 6 9 11 15 18 17 16 17 18 21 24 24 25 26 27 27 27 26 26 25 24 23 22 21 20 19 17 16 15 15 14 14 13 11 10 10 9 8 8 7 8 9 10 10 10 10 8 7 7 7 7 7 8 9
4 3 1 2 2 3 6 5 4 4 4 6 5 4 3 3 3 4 4 4 7 9 6 7 10 11 9 5 5 5 5 4 5 9 13 16 18 19 17 17 20 23 26 27 27 28 29 28 28 28 27 25 24 22 21 20 19 18 17 16 15 14 13 13 12 11 11 10 9 8 8 8 8 8 8 8 8 8 7 6 6 6 6 7 7 8
5 7 6 4 3 6 6 4 3 2 2 5 5 6 5 4 4 5 6 6 8 6 2 3 4 7 9 8 6 5 7 6 4 5 13 19 19 20 20 19 23 26 27 28 29 30 30 30 29 28 27 25 24 22 21 20 19 18 17 16 14 13 13 13 13 12 11 11 9 9 8 7 7 8 7 7 7 6 5 5 4 5 5 6 7 8
4 6 9 6 3 9 12 7 5 4 6 9 8 8 7 6 5 7 7 8 8 4 2 3 4 4 6 8 9 5 7 7 7 6 11 20 22 22 22 23 26 29 29 30 31 31 32 31 30 29 27 25 24 22 21 20 19 18 17 16 15 14 14 13 13 13 12 11 10 9 8 7 7 7 7 6 5 5 4 3 3 4 4 6 7 9
6 4 9 10 6 12 15 11 8 7 8 11 9 8 8 6 6 7 6 8 6 2 2 3 3 5 4 2 1 4 8 7 7 8 10 16 20 21 22 25 28 30 31 32 33 33 33 32 30 29 27 26 24 23 22 20 20 18 17 16 15 14 15 14 14 13 12 11 10 9 8 8 7 7 6 6 5 4 2 2 2 4 5 7 9 10
9 6 6 7 6 15 16 10 8 8 7 8 7 8 9 5 5 4 1 2 2 0 2 5 4 4 3 2 3 4 6 7 8 9 11 14 18 21 21 24 29 32 33 34 34 34 34 33 31 30 28 27 26 24 23 21 20 19 18 17 16 15 15 15 15 14 13 12 11 10 9 9 9 8 7 6 5 3 1 1 3 5 6 8 9 11
7 3 4 4 3 10 9 5 7 5 3 5 7 8 5 1 2 2 1 1 1 5 4 6 5 3 2 2 4 5 5 7 7 8 11 13 17 19 20 24 31 34 35 36 36 36 35 34 32 31 29 28 27 25 24 22 21 20 19 19 17 17 16 16 15 14 13 13 12 12 11 10 10 9 8 6 4 3 1 2 3 5 6 8 9 10
6 2 3 5 3 3 2 2 3 3 0 5 6 6 4 2 3 3 4 3 4 7 4 6 8 7 5 4 4 6 6 7 7 8 10 12 15 17 19 24 31 35 35 36 37 36 36 35 33 32 30 29 28 26 24 23 22 21 20 19 18 17 17 17 16 15 14 14 14 13 13 12 11 9 8 6 4 2 1 2 3 5 7 8 9 10
6 4 2 3 2 4 2 1 4 4 3 1 2 2 3 3 6 6 5 5 5 7 5 5 8 8 8 6 6 9 10 9 9 9 10 13 16 18 19 22 28 33 34 36 38 38 37 36 35 34 32 30 28 27 26 25 24 23 21 20 19 18 18 17 17 17 16 15 15 14 14 12 11 10 8 6 4 3 1 2 3 6 8 9 10 11
6 6 3 1 2 5 4 5 8 7 5 2 3 3 3 2 5 6 5 4 5 6 6 4 5 6 8 8 12 14 13 11 12 10 10 14 18 20 21 23 29 35 37 39 41 40 39 38 36 35 33 31 30 29 28 27 26 24 24 23 22 21 20 19 19 18 17 16 16 15 14 13 11 10 8 7 5 4 2 3 5 6 8 9 10 11
4 5 4 1 3 5 5 7 10 9 8 7 6 7 6 3 1 3 5 4 4 5 6 6 5 3 2 5 12 16 14 12 12 11 11 15 19 20 22 25 32 38 40 42 43 42 41 40 38 36 34 33 33 31 30 29 27 26 26 25 24 23 22 21 20 19 19 18 17 16 15 14 12 11 10 8 6 4 3 4 5 7 8 9 10 11
4 5 5 3 4 7 4 2 4 4 6 8 9 9 9 8 4 4 6 5 2 4 4 5 7 3 2 2 3 8 9 10 12 12 11 15 19 21 22 25 32 39 43 44 45 44 42 41 39 37 36 35 35 33 32 31 30 29 29 27 26 24 23 23 22 21 20 19 18 17 16 15 13 12 11 9 7 5 4 4 5 7 8 10 11 13
0 2 6 4 4 4 1 3 1 1 2 5 7 8 8 8 9 9 7 4 3 3 0 2 6 2 3 3 4 4 3 4 8 11 11 14 18 19 20 23 29 37 42 43 44 43 43 42 40 38 38 38 36 35 34 33 32 32 31 29 28 26 25 24 23 22 21 20 20 19 17 16 15 13 11 9 7 5 4 4 6 7 9 11 12 14
1 1 5 3 0 1 2 2 2 1 1 6 7 7 8 10 10 7 3 1 4 5 3 3 7 3 2 3 4 4 5 4 3 7 10 11 13 16 18 20 24 30 36 40 41 42 42 42 41 40 40 39 38 37 36 35 34 34 33 31 29 28 27 25 24 23 23 22 21 20 19 18 16 15 12 10 7 5 4 4 6 8 10 12 13 15
6 3 4 3 2 3 4 4 5 4 4 7 7 7 9 10 5 2 0 0 5 8 8 7 8 3 3 2 3 2 1 1 3 4 6 8 11 13 16 19 21 23 30 36 39 40 42 42 42 42 41 40 39 38 37 37 37 36 35 33 31 29 28 26 25 25 24 23 22 21 20 19 18 15 13 10 8 5 4 4 6 8 10 12 14 16
6 4 5 7 8 9 8 6 6 5 5 5 6 8 11 11 8 4 2 5 9 7 8 9 8 3 4 2 1 1 2 3 4 4 5 6 9 12 15 18 20 22 27 34 37 40 41 42 43 43 42 41 41 40 40 40 40 39 37 34 32 31 29 28 27 26 25 24 23 22 21 20 18 16 13 10 8 6 5 5 6 8 10 12 14 16
1 3 8 12 12 8 4 3 2 3 8 9 9 10 11 13 11 6 5 8 7 3 6 12 8 4 4 5 5 4 4 4 4 5 6 6 8 11 14 17 19 22 26 30 34 38 40 41 42 43 43 43 43 43 42 43 43 41 38 36 34 32 31 30 29 27 26 25 24 24 23 21 19 16 13 11 9 7 6 6 7 8 10 12 15 17
1 5 11 15 14 6 1 2 4 1 7 12 13 13 11 11 13 11 12 12 5 4 8 8 6 6 8 8 8 6 5 5 5 6 7 8 11 13 14 15 17 20 23 27 31 35 38 41 42 44 44 45 45 46 45 45 44 41 39 37 35 34 33 31 30 29 28 27 26 26 24 23 20 17 15 13 10 9 8 8 8 9 11 13 15 17
2 8 10 11 13 6 2 2 4 3 3 5 11 15 12 12 15 16 18 14 7 7 10 3 7 9 9 7 8 8 8 8 7 7 7 9 12 15 16 16 17 18 22 25 28 31 34 37 40 44 47 48 48 48 47 47 45 42 40 39 37 36 34 32 31 31 30 29 28 28 27 25 21 18 16 14 12 11 10 10 10 11 12 13 15 18
3 7 6 5 10 8 1 2 3 2 2 2 6 11 11 13 15 16 17 12 7 10 12 3 3 8 7 5 6 7 9 9 8 8 9 10 13 17 18 17 17 19 20 21 23 25 28 32 38 43 47 48 49 49 49 48 46 44 43 41 39 37 35 33 33 32 32 31 30 30 28 25 22 20 18 16 14 13 12 12 12 12 13 15 16 18
3 5 4 4 6 7 3 1 1 1 1 2 5 8 11 13 12 11 13 10 8 12 12 6 8 9 5 3 4 7 9 8 8 10 11 10 12 15 16 16 17 18 18 18 19 21 24 28 33 39 42 45 48 49 49 49 48 47 45 43 40 37 35 35 35 34 34 32 32 31 28 25 24 22 20 18 16 15 14 15 14 14 15 16 17 19
4 3 3 4 7 6 3 4 4 3 3 3 9 14 14 12 10 10 10 8 10 12 9 7 10 9 2 5 6 7 9 9 9 10 10 10 12 14 15 16 17 17 17 18 19 20 22 25 27 31 34 37 42 45 48 49 49 49 47 44 40 38 37 37 37 36 35 34 33 31 29 27 25 23 21 19 18 17 17 17 16 15 16 17 18 20
5 4 3 5 6 3 0 4 6 5 2 4 10 11 11 10 10 10 9 10 11 10 7 7 9 6 3 5 5 6 7 8 11 11 11 12 14 16 17 18 19 21 21 21 21 21 22 24 25 27 28 30 33 37 41 45 47 49 49 44 40 39 40 39 39 38 37 36 35 33 31 29 26 23 22 21 20 20 19 18 18 17 17 18 19 22
5 5 4 4 4 1 1 4 5 4 5 4 4 5 12 14 13 11 11 11 10 9 8 8 8 4 5 7 7 7 8 12 15 15 14 15 16 19 21 22 22 23 22 21 21 22 23 24 25 26 26 26 27 28 32 36 39 43 45 43 41 42 42 41 40 40 39 38 37 34 32 30 27 24 24 23 23 22 21 20 19 18 18 19 21 22
6 5 4 2 2 2 3 5 5 6 5 2 2 1 8 11 13 12 12 13 12 12 11 11 10 8 8 9 10 9 10 12 15 16 17 17 18 19 21 23 23 22 21 21 21 22 22 23 24 25 24 24 22 22 25 28 30 34 39 42 43 43 42 41 42 41 41 40 38 35 33 30 28 27 26 25 24 23 22 22 20 19 20 21 22 23
5 5 3 2 3 3 3 6 6 2 2 3 3 2 3 3 7 9 10 13 15 12 9 11 14 12 10 11 11 10 9 9 12 16 19 19 20 21 20 21 21 22 22 21 20 20 20 20 21 21 20 19 17 17 19 21 23 29 36 41 43 42 42 42 43 43 43 41 38 37 35 32 30 28 27 27 26 24 24 23 21 21 21 22 23 24
3 3 2 3 3 2 3 6 3 5 6 6 5 6 8 7 7 8 7 10 10 10 10 11 12 13 12 11 11 8 6 6 8 14 20 22 22 23 22 21 22 23 21 19 18 18 17 18 18 17 18 17 16 16 17 18 20 25 31 36 39 41 43 44 44 44 43 41 39 39 37 34 31 30 30 29 26 24 24 23 22 21 22 23 24 25
1 1 1 3 3 3 3 4 3 3 7 6 2 6 12 12 9 8 6 7 5 12 17 15 11 12 11 8 9 9 4 3 4 9 17 21 20 19 20 20 22 22 19 17 17 17 17 17 18 18 19 19 19 19 19 19 20 22 27 32 35 37 40 42 42 43 43 42 41 40 38 35 33 33 32 29 26 25 24 23 22 22 22 23 25 26
1 1 1 2 3 3 4 5 5 5 7 4 2 4 8 13 12 8 3 7 4 13 21 18 12 12 10 10 13 11 5 3 5 8 14 15 13 12 13 14 15 17 18 17 17 18 18 18 18 19 19 19 20 19 19 18 19 21 24 26 29 31 34 36 38 40 41 41 41 40 39 37 35 35 33 29 26 25 25 24 23 23 23 24 26 27
2 2 3 4 5 6 6 6 4 4 4 2 4 4 6 13 14 8 3 6 3 12 20 19 14 11 12 15 15 9 5 7 5 6 10 10 8 9 9 10 11 13 16 17 17 18 19 18 18 18 17 17 16 16 16 16 17 20 21 23 25 28 30 31 32 34 36 38 39 40 40 39 38 36 33 29 27 26 25 25 24 23 24 25 27 28
3 3 4 6 6 8 10 7 4 4 3 3 7 10 13 13 9 5 4 2 7 11 14 15 15 13 13 17 16 11 14 16 10 7 9 8 7 7 7 9 11 13 15 17 17 18 18 17 16 15 14 13 13 13 14 15 16 18 19 21 24 25 25 25 26 28 32 35 37 39 39 39 39 37 33 29 27 27 26 26 25 24 25 26 27 28
4 3 4 6 6 7 8 7 4 4 2 6 10 13 15 8 3 4 5 9 13 13 12 14 16 14 13 17 19 18 19 19 16 15 14 11 9 9 8 9 11 12 13 15 15 16 16 15 15 15 14 13 13 14 14 15 17 18 18 21 23 22 21 21 23 25 29 32 35 36 37 39 40 37 33 30 29 28 28 26 25 25 25 27 28 29
5 5 4 5 5 4 4 6 5 4 3 15 16 9 5 2 2 10 14 11 11 13 14 17 18 15 13 14 17 19 19 17 17 17 16 14 12 11 10 9 10 10 11 11 13 14 15 15 15 15 15 14 15 16 17 18 19 19 21 22 22 19 19 20 21 24 27 30 32 34 35 38 39 36 33 31 30 29 29 27 26 26 26 27 29 29
5 6 4 4 5 5 5 6 3 3 6 20 14 3 5 7 9 17 16 10 10 13 15 18 18 16 14 14 16 19 18 18 19 17 14 14 14 13 12 11 10 11 11 12 14 14 15 16 15 15 14 15 15 17 18 20 20 21 23 22 20 18 19 20 21 24 26 28 30 32 34 36 37 35 33 32 32 31 30 28 27 27 27 28 29 30
4 4 1 2 4 4 3 3 1 3 10 19 7 4 8 14 12 12 11 11 14 14 13 16 18 17 15 16 18 19 19 20 21 18 15 14 14 13 13 11 11 13 13 15 16 16 16 16 15 14 14 14 15 16 18 19 21 22 23 21 19 20 21 21 22 24 26 28 30 32 34 35 36 36 35 34 33 32 30 29 27 28 28 29 29 30
1 2 1 1 2 3 1 3 3 2 8 14 5 3 10 16 12 8 7 9 13 14 13 15 15 14 15 16 18 20 20 20 20 19 17 16 15 14 14 14 14 15 16 18 18 18 17 17 16 16 16 15 15 16 17 19 22 23 23 21 21 22 23 23 24 25 26 28 30 32 34 35 36 37 36 36 35 33 31 29 28 29 29 29 30 30
2 4 2 1 3 4 1 3 4 3 3 10 8 3 8 14 13 8 6 8 10 12 13 12 11 11 13 15 17 18 19 19 19 18 18 17 16 15 15 16 17 17 19 20 20 19 19 19 19 19 18 19 18 17 17 19 21 23 24 24 24 25 26 26 27 28 28 30 31 33 34 36 37 38 38 37 36 34 32 30 29 30 30 30 30 30
4 7 5 4 6 5 1 3 3 3 0 7 10 9 8 11 13 11 8 9 9 10 11 11 11 13 14 14 14 15 16 18 19 19 18 18 17 16 17 18 19 19 21 21 20 20 21 21 21 22 22 23 23 21 20 20 21 22 25 27 28 29 29 30 31 31 31 31 32 34 35 37 39 39 39 38 37 34 32 31 30 30 30 30 30 30
6 7 5 4 4 4 2 2 3 2 2 4 11 15 13 11 11 11 10 10 11 12 13 13 14 14 15 15 15 15 16 16 17 18 19 19 19 19 20 21 21 21 22 22 21 21 22 23 23 24 26 27 26 24 23 23 22 22 24 28 32 33 34 34 34 34 34 35 35 36 37 39 40 41 41 40 38 36 33 31 31 31 31 31 30 30
6 5 4 5 4 4 3 6 8 4 2 4 10 16 17 14 14 15 13 13 14 16 17 17 16 16 17 17 17 17 17 17 17 17 18 20 20 21 21 22 22 23 23 23 23 23 23 24 24 25 27 28 28 27 27 27 25 24 25 27 31 35 37 38 38 38 38 39 39 39 39 40 41 42 42 41 39 37 34 32 32 32 32 31 31 30
9 8 5 6 6 4 4 11 14 9 5 6 9 13 15 17 17 17 16 17 18 19 19 19 18 19 20 19 18 18 18 17 16 16 18 20 20 21 21 22 23 24 25 25 25 25 25 26 26 27 28 28 27 28 30 30 29 29 28 29 31 34 37 40 42 43 43 42 42 42 42 42 42 43 43 43 41 39 35 33 33 33 32 32 31 29
Wind_Direction
193 207 209 219 228 227 220 216 230 250 278 294 287 276 269 264 265 268 120 125 163 248 250 256 259 260 258 211 167 171 179 193 201 196 197 190 185 187 185 187 182 198 219 217 211 206 191 176 152 139 137 136 139 137 131 130 130 129 131 136 142 143 140 145 153 156 161 170 177 176 181 186 178 175 183 187 187 181 176 168 158 159 158 168 179 177
194 223 225 226 234 245 239 223 230 247 262 265 268 267 259 253 262 264 137 129 153 245 262 265 261 259 263 232 161 166 185 199 204 201 203 194 184 186 185 186 187 208 220 212 206 196 179 169 156 149 147 143 141 139 135 134 133 131 133 135 134 138 137 136 143 150 156 159 167 180 188 188 173 160 154 141 124 106 98 99 104 107 100 99 101 97
217 229 232 234 232 224 231 221 230 242 250 254 254 255 255 253 263 251 140 136 183 233 266 266 259 262 261 206 159 176 192 195 196 197 200 191 188 191 187 187 190 203 208 204 200 187 174 167 160 154 148 142 140 140 141 140 139 138 138 139 136 135 138 139 141 147 158 156 157 161 148 137 129 120 113 106 98 91 91 92 91 89 86 85 83 82
227 234 233 226 199 181 207 207 220 239 243 242 238 243 250 248 257 249 157 146 198 231 288 293 271 270 257 175 161 187 187 177 179 190 197 191 193 193 190 188 182 186 191 190 187 176 171 168 164 157 146 144 145 147 149 147 147 147 144 142 138 134 136 140 143 145 144 138 133 127 120 117 112 107 103 98 94 91 91 89 86 83 80 78 77 75
239 261 207 198 190 213 225 208 207 231 240 232 230 236 251 250 248 254 213 139 217 230 241 268 275 269 242 207 188 173 175 188 187 193 205 204 203 198 199 196 182 178 178 180 179 172 169 166 163 160 153 152 153 153 153 152 151 151 150 147 142 140 139 135 133 130 124 119 118 116 115 114 109 104 101 98 95 93 89 85 82 78 76 74 73 71
242 198 138 182 191 212 224 218 205 217 245 242 228 226 244 258 259 261 257 202 268 249 194 218 262 274 232 210 190 155 177 198 186 195 205 201 202 203 204 200 194 190 179 173 177 173 167 162 162 162 161 161 159 158 156 154 154 153 151 149 144 140 135 129 125 122 118 116 117 116 116 112 108 106 105 102 98 95 90 85 81 78 76 72 69 68
227 136 149 178 183 199 216 227 208 204 240 255 234 218 237 256 261 258 250 222 265 275 152 199 252 274 226 195 173 157 184 189 180 199 203 194 196 198 195 191 194 196 185 175 173 169 165 162 164 165 164 162 159 157 155 153 151 148 145 141 136 130 123 119 116 116 115 115 116 115 113 111 112 113 110 106 103 100 94 88 85 80 75 70 65 62
151 162 167 173 192 207 215 231 213 197 227 250 48 55 226 244 249 243 236 229 257 294 176 190 233 267 261 192 151 160 183 188 191 201 198 196 197 193 190 186 182 186 184 178 171 169 168 166 166 164 161 157 154 152 150 149 145 141 139 134 129 123 118 115 113 113 113 111 112 111 113 118 120 118 113 111 107 101 95 91 87 80 74 67 60 55
149 179 184 188 205 218 218 235 201 189 220 242 76 63 137 228 243 225 227 234 251 278 241 197 189 243 255 197 142 165 200 212 206 199 194 196 194 187 184 182 176 179 181 176 172 171 169 167 164 161 158 154 152 150 147 145 141 138 135 131 129 126 124 122 120 117 114 112 115 119 126 131 127 123 119 115 108 101 96 92 85 77 72 64 55 49
87 187 201 205 215 221 200 54 129 194 217 150 112 93 89 94 182 197 226 236 233 245 245 211 184 216 258 219 172 174 220 231 209 188 191 191 185 182 180 174 174 180 180 175 174 172 169 165 161 157 156 154 152 150 147 144 141 138 136 135 136 136 136 133 128 124 121 121 128 133 137 138 132 128 123 116 111 105 99 92 85 76 68 59 49 41
91 77 295 225 226 207 116 69 36 36 133 133 135 119 118 143 150 192 229 231 244 243 238 221 203 214 259 238 202 190 207 222 185 166 180 180 175 176 175 172 175 182 181 176 175 173 168 164 160 157 156 155 153 152 149 147 145 143 143 145 146 146 145 141 134 133 135 138 144 144 140 139 135 130 125 121 116 109 104 96 85 73 60 50 39 31
166 169 182 182 174 108 110 96 53 52 120 150 166 165 171 189 172 216 225 205 247 249 228 216 205 212 236 237 203 166 142 164 160 166 174 170 171 173 171 171 178 184 182 178 176 173 169 165 161 160 158 157 157 155 153 152 151 151 152 154 155 154 151 146 143 146 151 152 153 151 145 141 136 130 128 124 118 113 106 93 79 64 50 38 28 20
207 205 178 136 164 180 168 144 105 91 179 190 191 184 197 212 194 226 225 208 239 244 150 140 176 217 238 239 220 160 136 146 122 147 170 166 167 169 167 170 179 184 183 180 178 174 171 167 165 163 162 160 160 159 158 158 158 160 160 161 163 162 158 155 156 160 163 163 160 157 153 148 142 136 133 127 121 117 106 90 73 55 38 26 17 9
208 205 181 162 182 196 192 182 169 172 185 192 191 185 196 207 214 231 226 224 236 227 122 139 167 233 246 236 225 173 118 116 89 89 157 165 165 165 166 173 180 184 184 182 180 176 172 170 169 168 166 165 165 164 165 165 166 168 166 167 170 171 168 167 169 170 171 170 165 163 159 155 151 144 140 135 129 125 111 92 64 37 20 9 1 356
217 232 181 178 172 176 192 212 203 167 173 194 196 195 205 209 225 237 228 231 229 149 122 158 173 216 208 185 197 117 99 102 103 106 136 156 161 160 164 175 182 185 185 184 182 179 175 173 173 172 171 171 171 171 171 171 172 174 173 173 177 180 178 178 179 178 177 175 171 170 168 164 160 156 155 152 146 142 122 82 30 6 356 352 349 346
225 253 164 158 143 162 184 217 201 162 171 195 195 209 220 225 245 258 263 242 234 123 176 185 222 242 185 100 80 109 119 120 118 125 135 147 155 156 163 176 184 186 186 186 185 181 179 177 177 177 177 176 177 177 178 178 179 180 179 179 182 187 187 186 186 183 181 180 177 175 174 172 170 169 169 166 161 159 148 358 343 342 341 340 339 338
219 254 121 116 123 170 186 206 190 186 172 172 191 207 204 2 311 262 211 123 255 270 222 170 222 257 186 179 140 132 148 143 135 141 149 153 157 161 168 178 186 188 189 189 187 184 182 181 182 182 181 182 182 182 183 184 184 185 187 187 187 191 193 191 189 187 185 185 183 180 179 178 177 177 176 176 176 181 217 309 326 334 337 336 335 334
215 250 154 163 176 172 5 358 218 267 77 153 194 193 125 34 319 271 248 223 214 252 237 171 208 215 196 203 147 145 176 172 163 157 157 163 168 174 180 184 189 190 191 192 190 187 186 186 186 186 186 186 186 187 188 189 189 189 192 194 194 196 197 194 192 190 191 189 187 185 183 183 182 183 184 185 189 203 241 310 337 339 336 334 331 329
201 233 189 160 168 131 80 240 214 239 235 220 277 181 141 220 225 206 232 244 217 235 249 204 208 214 212 198 158 174 192 185 176 165 167 178 182 187 186 184 189 191 193 195 193 190 190 190 190 190 190 189 190 192 193 194 194 194 194 195 198 200 200 199 198 195 194 193 192 190 188 187 187 188 189 190 196 205 225 305 326 326 325 326 327 328
184 222 220 133 103 128 146 209 202 194 202 271 303 222 194 246 233 207 213 236 226 231 250 224 199 216 222 193 172 183 192 181 171 172 186 191 188 190 187 184 190 193 195 196 195 194 194 193 194 194 192 193 194 196 197 198 198 197 198 198 199 200 200 201 201 199 197 196 196 195 193 193 192 191 192 194 198 209 237 289 308 314 320 325 328 331
177 215 218 116 109 154 178 207 206 197 188 195 209 203 195 186 233 255 230 227 237 239 245 249 247 232 200 178 175 183 189 177 169 177 193 194 191 191 189 188 192 196 198 199 198 198 197 197 197 196 195 197 199 199 200 201 200 200 201 201 201 202 203 203 202 201 200 199 199 199 198 197 196 195 198 202 207 222 253 285 304 315 324 330 333 336
197 206 205 173 173 199 204 179 210 221 202 201 204 203 202 192 182 224 223 203 214 247 245 264 271 261 86 53 151 170 179 173 171 179 185 189 191 191 191 193 196 199 201 201 201 201 200 200 199 198 199 201 202 203 203 203 203 204 204 203 203 204 205 206 205 204 203 203 202 202 201 200 199 200 204 208 215 229 256 287 311 323 331 335 337 338
353 222 218 213 192 200 173 79 85 302 268 247 235 219 209 199 198 213 220 182 164 217 309 311 280 275 83 46 44 62 78 124 160 175 180 187 190 190 190 192 198 204 204 203 204 203 203 204 202 201 203 204 205 206 206 206 206 207 206 206 206 207 208 208 208 208 207 206 206 204 203 202 203 206 210 212 218 231 260 297 322 332 335 338 338 337
71 220 216 223 18 145 138 137 152 110 269 254 244 223 215 213 207 214 243 160 175 196 174 222 253 246 89 50 48 49 42 60 141 173 174 177 180 182 185 188 196 203 204 205 205 206 206 206 204 204 206 207 208 209 209 210 210 210 209 208 208 209 210 210 210 210 209 208 208 207 207 207 208 211 213 214 219 233 265 305 328 336 337 337 335 333
175 192 189 188 243 217 198 205 210 194 197 225 228 213 220 221 193 164 4 111 227 215 182 211 245 209 127 52 41 57 51 121 181 181 168 159 160 169 178 186 192 196 202 206 206 208 209 209 207 208 209 210 211 212 213 213 213 213 211 210 209 210 212 212 212 211 211 211 211 210 210 211 212 213 213 214 219 235 265 304 325 333 335 333 331 330
181 193 178 189 215 218 214 225 225 190 172 213 224 202 212 213 182 167 194 217 238 218 175 213 239 152 126 165 174 172 230 218 186 179 177 159 156 167 178 188 192 194 202 207 207 210 212 212 211 212 213 215 215 216 216 216 215 214 212 211 212 213 213 213 213 212 213 213 213 213 213 213 214 214 214 216 222 236 259 290 311 322 327 327 328 328
163 228 207 212 222 219 216 273 312 124 155 192 204 189 198 206 193 184 208 219 223 181 200 224 220 167 167 187 197 197 205 226 203 176 184 181 179 185 189 194 197 200 207 210 211 214 215 216 217 217 218 219 219 219 219 218 218 216 213 213 213 214 215 216 215 214 214 215 216 216 216 217 217 216 216 220 228 238 252 272 293 308 316 321 324 324
104 237 223 228 237 236 85 332 330 310 190 198 198 192 192 196 192 196 216 218 172 151 230 218 171 211 217 182 190 200 192 222 218 188 191 196 199 201 199 200 201 205 211 213 215 217 219 222 223 222 222 223 223 223 222 221 220 217 216 216 215 216 218 218 217 215 216 217 218 219 219 219 219 218 221 226 231 239 249 263 281 297 309 314 317 319
170 232 228 231 238 236 76 352 328 320 252 209 195 196 191 185 190 202 217 218 174 200 241 167 138 219 233 188 191 188 187 212 208 189 192 191 197 202 201 201 200 203 210 214 218 222 225 228 228 227 226 225 225 225 224 224 222 219 219 219 218 219 220 219 217 217 219 220 221 221 221 221 221 222 225 229 233 239 248 262 277 291 301 307 311 314
187 228 225 218 234 235 217 341 338 358 328 286 217 206 196 193 197 206 217 218 199 229 251 256 205 246 250 226 208 173 184 199 178 173 185 179 185 193 195 200 203 205 209 212 218 224 228 231 232 230 228 228 228 228 228 228 225 222 221 220 220 221 221 220 219 221 222 222 223 224 224 223 223 224 228 231 235 242 250 262 274 286 296 303 307 310
198 220 176 156 232 235 198 151 28 50 332 282 259 239 219 206 200 208 220 219 218 239 250 257 268 269 245 192 152 144 165 170 163 180 186 176 181 189 194 202 206 209 212 216 222 228 231 234 234 234 233 233 233 233 232 232 229 226 224 223 222 222 222 222 222 223 224 224 225 227 226 224 224 226 230 233 238 245 252 261 271 283 292 298 303 306
198 210 137 158 222 227 187 170 160 102 60 287 262 248 228 211 197 204 219 212 208 229 241 241 252 257 197 121 120 148 165 172 187 195 187 183 189 194 201 209 217 224 228 232 236 237 239 241 241 243 244 243 241 239 238 237 234 230 228 225 224 224 223 224 223 224 225 226 228 229 227 226 226 228 232 236 241 247 252 261 271 281 289 294 299 303
188 188 156 187 210 226 11 165 149 112 91 251 252 231 203 199 203 205 219 218 208 213 222 227 239 243 153 140 162 172 174 190 204 202 199 203 207 214 224 230 236 239 236 236 239 242 247 251 253 256 256 254 251 248 247 245 242 239 235 229 226 225 224 224 224 224 226 228 230 231 229 227 228 231 236 240 243 247 252 261 269 278 285 291 296 300
180 186 182 189 191 197 159 139 140 176 205 232 267 192 176 191 204 208 220 223 211 208 218 233 244 221 159 174 193 191 195 212 221 222 223 223 223 231 238 239 237 236 235 238 244 248 252 254 255 256 257 257 258 256 255 252 251 248 241 232 228 226 224 225 225 225 227 229 231 232 230 228 229 233 239 242 243 247 254 261 268 275 283 289 294 298
170 176 183 179 150 142 142 144 174 214 211 215 308 196 175 190 203 214 230 234 224 218 221 232 243 226 187 191 207 212 216 224 230 234 234 235 237 239 238 236 235 236 242 248 252 253 254 253 254 254 254 256 256 253 252 250 250 247 238 230 229 227 226 226 226 227 230 231 233 234 231 228 230 234 240 242 244 248 254 259 267 275 282 287 292 296
171 170 166 158 145 133 149 183 202 261 316 218 201 113 103 164 200 210 233 243 234 223 218 226 237 240 222 206 208 216 229 239 247 247 243 243 246 243 238 239 242 246 253 257 257 256 255 253 253 252 251 249 245 242 244 244 241 238 233 230 230 229 228 228 227 229 232 233 235 235 230 228 232 236 241 243 245 249 254 260 267 275 281 286 291 296
182 178 171 179 181 154 176 210 242 334 302 244 189 162 172 177 178 184 219 246 226 199 205 221 231 237 229 208 196 197 218 253 270 262 255 254 254 251 248 250 253 256 258 258 254 251 247 245 244 242 239 237 235 235 236 235 233 231 230 230 231 230 230 230 230 233 236 236 236 235 231 229 233 238 242 244 246 250 255 261 268 275 280 286 290 294
212 234 213 211 201 154 169 222 246 277 261 251 144 159 181 180 167 163 201 251 216 185 199 211 220 227 219 184 162 161 176 253 268 263 262 262 259 256 255 254 254 255 252 246 242 238 236 235 233 232 232 233 234 234 232 230 229 228 229 231 232 233 233 233 236 238 239 237 237 235 233 231 234 240 243 245 248 251 255 261 268 274 280 285 289 291
234 315 307 241 211 173 188 222 218 229 250 249 104 118 162 164 148 130 195 258 220 182 195 204 213 217 199 166 157 151 153 232 247 251 257 261 261 256 255 254 251 247 241 235 232 231 230 232 232 232 233 234 235 235 234 233 231 230 231 232 234 235 236 237 239 239 238 237 237 237 235 233 235 241 244 246 249 251 254 260 266 272 279 284 287 289
203 204 209 223 222 209 210 221 229 249 264 184 130 124 141 146 138 130 227 260 185 175 191 200 204 199 182 173 167 156 186 218 229 241 241 250 264 260 253 249 244 238 231 226 226 228 230 233 235 237 238 239 239 237 235 233 230 229 231 232 234 236 237 239 240 239 237 237 237 238 236 235 237 241 244 246 248 249 254 259 265 271 278 282 285 287
192 200 204 216 227 223 219 225 247 258 244 149 143 149 143 138 148 190 232 193 159 178 190 193 198 198 186 183 181 191 217 223 227 236 236 250 268 260 246 236 230 228 226 224 227 231 233 234 236 238 238 238 237 235 233 232 231 231 231 231 233 236 239 240 239 237 236 236 237 238 238 237 238 241 243 246 246 248 253 258 264 271 276 281 284 286
173 181 201 217 223 224 227 234 253 264 221 127 132 145 145 144 208 215 148 133 156 176 184 189 198 204 199 196 200 212 226 233 238 242 246 256 260 249 242 233 224 224 226 225 228 233 234 234 234 234 235 235 235 236 237 238 238 239 238 236 238 242 243 238 233 232 233 235 237 238 239 238 239 240 243 244 244 248 253 257 263 270 275 279 282 284
172 169 190 215 205 204 238 227 227 277 145 130 127 136 170 211 162 139 134 138 153 166 182 191 196 203 208 212 220 227 233 239 242 243 246 252 252 246 241 232 223 225 228 230 233 234 234 235 235 236 238 239 239 240 241 241 243 242 242 243 246 247 241 232 227 227 229 233 235 237 239 239 239 241 243 243 244 247 252 257 262 269 273 277 280 282
186 182 195 219 189 184 221 211 205 329 164 154 141 118 199 180 130 127 138 160 172 175 190 197 197 203 212 222 231 234 234 237 241 245 248 249 249 246 240 231 226 230 234 234 232 230 230 233 234 237 240 241 243 244 243 244 245 243 244 247 247 242 235 228 225 226 229 232 235 238 239 240 240 242 242 242 244 247 252 257 262 268 272 276 279 281
200 180 184 230 194 192 222 202 92 28 172 173 156 37 158 162 141 130 144 170 180 182 190 195 198 204 212 221 229 235 239 242 245 248 247 245 246 243 238 233 233 238 239 235 231 231 233 235 235 238 243 246 247 247 245 246 246 245 248 251 246 238 235 231 229 230 233 236 238 240 241 241 241 241 241 241 244 248 252 257 262 267 271 274 277 280
167 107 61 24 215 235 272 141 122 85 177 184 184 77 153 165 161 150 154 172 183 190 190 189 198 210 219 227 234 239 244 249 252 251 246 245 245 238 233 233 235 238 238 236 236 238 239 239 239 241 246 252 254 253 251 248 247 249 253 252 246 240 238 235 235 236 238 241 243 243 243 242 241 241 240 242 244 248 251 257 262 266 270 273 276 279
179 162 170 210 220 232 237 124 115 77 163 189 196 172 170 182 186 187 186 181 187 198 200 198 209 222 229 237 242 245 249 251 252 251 248 247 245 237 233 237 239 241 243 243 244 245 244 244 246 249 255 260 262 262 259 255 254 256 256 252 246 243 240 238 239 240 242 244 246 246 245 244 243 241 241 243 245 248 252 256 261 265 269 272 275 278
186 164 179 227 228 218 182 86 72 30 187 199 206 206 193 194 203 212 216 208 207 215 218 220 229 235 240 247 250 253 256 253 251 252 252 250 245 239 239 244 246 248 250 249 247 247 249 251 254 257 260 263 264 265 264 263 263 262 258 253 249 246 244 242 242 243 244 246 247 248 248 247 245 244 243 244 246 249 252 256 261 265 268 271 274 277
142 156 176 202 207 209 202 133 104 29 327 222 216 214 207 206 217 225 231 235 236 239 240 242 246 250 255 258 258 259 260 258 256 257 255 253 248 241 239 242 244 247 252 254 253 253 256 259 260 261 263 264 264 263 262 262 264 263 260 257 253 249 247 247 246 246 246 247 248 249 250 250 249 247 246 246 247 249 252 256 260 264 267 270 272 276
152 182 175 153 187 233 217 167 161 174 251 221 212 213 214 221 231 236 239 244 245 246 249 253 256 260 263 264 263 264 265 266 265 263 260 258 254 248 244 243 243 245 248 252 256 257 258 261 263 264 265 265 263 260 259 260 260 259 258 258 256 254 252 251 250 249 248 248 249 250 251 252 251 249 247 247 248 249 252 255 259 262 266 269 271 275
196 216 187 171 222 246 144 157 177 197 232 225 212 218 225 233 240 244 246 247 247 248 252 258 262 265 267 268 269 270 270 271 270 267 264 261 257 254 251 247 246 247 248 251 255 258 258 260 261 262 263 265 265 263 262 262 261 259 257 257 258 258 257 255 254 253 252 252 252 252 253 253 252 251 249 248 249 249 251 254 257 260 264 267 270 274